Wetbulb
56.70 56.58 56.45 56.32 56.32 56.30 56.29 56.44 56.90 56.77 56.64 56.65 56.76 56.93 56.72 56.75 57.29 56.26 49.67 54.53 56.90 64.74 68.69 64.79 65.09 63.21 66.80 66.47 67.53 66.77 59.44 56.33 57.41 58.36 59.90 63.21 61.94 65.45 66.69 63.89 65.05 65.98 65.40 67.35 69.78
56.48 56.46 56.27 56.21 56.21 56.19 56.17 56.23 56.21 56.23 56.16 56.37 56.44 56.59 57.04 57.40 54.03 51.17 57.73 60.44 62.96 68.19 63.45 60.01 58.29 59.51 59.49 62.08 65.24 63.62 60.06 57.38 61.26 61.89 60.80 61.94 62.58 63.06 62.72 63.29 63.10 64.26 67.16 68.58 69.34
56.61 56.42 56.42 56.16 56.12 56.10 56.00 55.98 55.76 55.76 55.72 55.91 56.30 56.29 57.10 57.46 49.35 46.79 60.68 62.82 64.57 68.13 63.44 60.48 58.95 57.83 54.97 58.16 60.32 62.60 59.16 61.77 62.64 63.26 63.70 61.93 62.11 64.70 62.30 60.84 63.23 62.83 65.22 67.24 68.18
56.60 56.43 56.40 56.30 56.31 56.16 56.16 55.89 55.91 55.80 55.63 55.59 55.99 56.36 57.69 55.01 41.38 57.74 66.34 64.10 67.49 66.42 61.26 58.26 56.37 54.43 53.80 55.35 60.67 60.19 62.41 62.80 63.67 64.42 62.49 62.14 63.31 62.93 63.68 63.82 65.80 66.21 67.04 67.35 67.19
56.63 56.11 55.86 55.94 55.97 56.11 55.97 55.80 55.80 55.57 55.29 55.68 55.80 56.37 55.23 49.68 48.25 53.41 67.48 64.91 65.99 59.69 57.26 56.53 54.37 55.00 54.08 56.38 60.38 60.53 62.11 63.79 65.20 63.97 64.29 64.05 62.02 62.10 62.44 65.57 66.97 67.11 67.01 66.66 66.55
56.20 56.18 55.83 55.50 55.29 55.17 55.28 55.21 55.21 54.96 55.02 55.11 55.60 56.14 52.30 44.40 54.52 64.21 67.01 62.47 62.63 57.72 54.40 56.37 55.01 57.91 56.73 56.76 58.55 60.67 63.04 64.20 64.73 63.01 63.77 61.35 61.53 62.77 63.43 66.04 65.65 65.73 65.61 66.14 66.09
56.08 55.75 55.58 55.25 54.94 54.85 54.60 54.34 54.18 53.79 53.84 54.40 55.15 55.93 51.31 48.47 56.38 63.58 63.09 60.38 59.53 57.08 53.64 54.26 56.79 57.63 59.36 57.31 59.45 62.63 60.89 62.72 63.36 63.55 62.52 62.73 59.44 59.88 64.68 64.56 64.38 64.46 65.16 66.18 67.28
55.79 55.72 55.66 54.97 54.74 54.73 54.99 55.33 54.94 54.48 54.66 54.89 55.64 55.05 46.86 53.30 56.83 61.81 58.27 57.16 56.25 54.63 54.57 55.80 57.49 58.50 59.21 60.60 53.74 59.05 60.53 56.18 62.29 63.65 63.03 62.39 56.33 62.03 64.97 63.72 63.56 64.26 65.33 66.24 67.52
55.60 55.50 55.13 54.68 54.37 54.05 53.81 55.03 55.55 55.34 55.70 56.18 54.12 52.07 46.05 58.34 53.82 58.51 57.92 53.76 56.38 54.99 54.90 55.65 55.35 55.98 57.75 54.37 50.17 53.29 52.47 55.57 58.85 63.28 62.56 61.00 57.68 62.46 65.17 62.91 64.07 64.88 65.59 66.37 67.24
55.55 55.48 54.88 54.73 53.80 53.34 53.14 54.78 57.25 57.18 56.48 56.48 55.36 49.55 53.07 52.16 54.81 55.64 56.20 55.97 53.10 53.07 51.25 51.45 53.66 53.41 53.73 51.56 47.84 48.04 50.22 56.75 57.25 60.85 61.52 59.54 57.68 60.66 63.57 62.63 63.86 65.06 65.63 66.31 66.82
55.76 55.09 54.72 54.63 54.24 52.95 52.06 55.16 51.68 51.18 52.83 50.38 50.42 49.58 51.30 55.93 55.84 53.33 55.96 52.97 52.42 50.65 46.53 51.06 50.54 50.02 53.32 53.17 50.62 50.89 54.47 57.08 58.84 61.05 59.85 57.36 56.61 59.60 62.71 64.03 63.83 64.61 65.26 65.92 67.07
55.55 55.04 54.90 54.17 53.48 52.70 51.12 50.55 52.45 53.76 49.12 52.20 52.07 50.90 52.83 53.98 50.53 52.36 56.58 51.99 48.99 44.87 49.06 49.31 46.93 53.47 53.41 50.31 50.72 59.10 57.60 56.47 59.12 60.02 58.86 57.51 57.56 60.26 62.09 63.03 64.03 64.35 65.21 66.23 67.42
55.50 54.76 54.24 53.91 52.88 51.22 50.36 51.47 54.57 55.01 48.81 49.60 52.08 51.65 52.10 53.72 50.99 51.48 54.17 52.73 47.22 46.27 48.62 47.69 50.02 54.12 51.70 49.46 48.99 52.24 54.09 56.44 56.57 58.69 59.59 58.77 56.27 58.80 61.92 63.46 64.47 65.36 65.72 66.60 67.27
54.90 54.51 53.56 52.84 49.62 51.84 51.21 54.10 54.53 54.41 46.42 48.42 49.97 52.03 52.98 52.30 50.09 54.75 56.47 53.05 50.08 46.47 49.93 50.91 51.39 52.31 49.64 49.43 50.41 47.99 53.08 58.74 56.77 54.99 51.73 57.06 47.62 54.64 59.55 60.71 62.22 63.70 64.93 64.94 66.93
54.87 54.02 52.60 51.98 50.17 51.50 52.97 54.90 53.37 50.85 36.64 49.83 50.75 55.13 52.22 50.52 51.87 51.44 56.70 54.65 49.15 49.26 50.27 49.41 49.61 49.13 48.62 50.15 50.76 49.31 53.04 59.04 57.30 55.07 54.39 53.49 51.06 53.89 58.76 58.10 60.65 63.20 64.75 65.16 66.66
54.26 53.63 52.43 50.89 50.80 53.92 54.92 53.77 51.41 44.68 36.19 46.51 50.35 49.53 47.91 50.01 51.24 52.60 52.66 55.17 53.66 50.26 50.72 50.29 51.98 52.41 51.76 51.76 52.05 55.59 57.92 57.31 56.43 54.82 46.45 52.38 52.05 52.12 55.82 57.44 60.62 63.12 64.54 65.99 66.34
52.88 51.82 51.34 52.64 53.45 54.47 54.48 52.61 45.29 39.34 47.92 44.86 46.39 48.82 47.51 47.45 49.87 50.77 50.19 49.64 47.74 45.04 45.95 49.13 48.91 50.99 51.39 48.99 51.51 54.42 52.50 46.82 46.15 46.56 45.42 52.49 52.19 53.97 59.32 61.23 62.12 62.19 64.27 65.58 66.99
51.61 50.58 51.69 53.20 54.83 54.20 53.70 49.69 39.56 44.15 44.93 48.49 47.97 47.38 45.11 47.08 48.30 49.76 49.10 47.73 48.28 47.96 46.14 44.76 42.78 49.27 50.71 50.36 48.17 53.88 52.06 46.55 40.52 42.55 46.72 53.08 49.89 53.79 60.66 62.81 64.60 64.63 64.46 65.51 66.54
50.46 51.81 52.74 54.75 54.18 53.49 51.97 42.61 42.06 44.39 47.27 46.74 46.69 44.95 45.16 47.37 47.18 48.20 48.22 48.70 50.19 49.81 45.29 44.19 43.90 49.72 50.45 51.53 51.34 47.73 46.46 52.89 48.57 48.57 48.42 51.78 53.99 57.85 61.11 61.23 63.54 63.81 64.30 64.63 65.49
53.39 54.70 55.29 55.79 55.24 54.09 49.28 41.39 44.82 47.30 48.50 47.97 42.89 45.02 42.99 45.58 45.63 46.45 46.07 48.09 47.85 49.53 50.36 47.30 43.68 48.92 50.56 51.21 50.77 50.38 52.18 45.73 47.65 43.63 42.68 48.47 50.60 54.21 57.26 59.02 61.44 62.59 63.19 64.88 66.27
53.50 54.30 56.07 56.00 54.91 52.50 45.31 44.87 46.33 49.76 49.17 46.58 44.64 44.51 45.04 45.16 46.81 44.85 44.75 46.98 48.28 48.87 49.89 49.11 47.05 47.38 49.29 48.52 48.09 48.47 48.00 48.55 49.62 48.21 45.89 45.54 50.23 58.34 58.76 60.69 61.59 63.46 64.05 65.49 65.66
52.56 51.26 56.02 54.11 50.84 46.38 46.70 46.84 45.05 47.09 48.43 47.17 47.01 47.16 45.77 45.78 44.77 45.32 44.00 46.00 50.02 50.03 47.72 48.96 47.71 45.06 46.74 49.46 49.99 51.33 50.35 51.31 45.92 46.49 50.47 50.29 51.69 61.05 61.99 62.65 63.24 63.02 64.43 65.15 65.89
52.28 52.60 54.82 54.82 46.39 46.45 47.26 46.14 47.69 47.93 47.47 47.17 45.96 46.89 47.60 45.53 44.09 45.94 46.83 50.56 51.34 48.87 48.17 49.16 45.56 43.64 44.44 47.35 48.76 48.05 47.84 50.30 52.54 53.24 50.48 47.95 50.41 61.03 62.50 62.47 63.36 62.17 63.54 64.53 65.53
50.27 48.26 51.21 48.11 46.20 46.73 44.88 44.68 44.69 47.78 47.65 47.83 46.65 47.15 46.85 45.83 47.33 45.57 46.86 49.88 51.05 51.95 52.89 51.75 45.31 44.77 43.36 44.86 47.35 46.02 47.58 48.73 49.69 48.34 49.88 50.91 52.82 57.52 59.45 61.19 60.95 61.79 62.93 63.65 64.59
51.25 47.89 47.26 46.78 46.10 45.53 45.78 45.36 44.17 44.18 47.68 49.18 47.25 45.91 45.59 44.60 44.74 43.65 45.26 47.91 50.15 51.35 49.80 49.31 43.95 45.77 46.00 46.81 48.11 48.92 47.88 48.03 47.06 49.08 48.47 51.98 53.99 57.46 59.95 60.87 61.60 62.23 62.48 62.72 62.42
52.70 51.68 49.07 45.96 44.25 46.44 43.73 44.90 44.15 45.17 45.70 43.80 45.69 46.32 46.67 44.67 44.78 43.17 45.12 45.26 44.23 48.21 50.21 50.30 45.42 45.94 44.89 46.89 46.07 48.06 50.31 51.45 51.48 50.25 52.80 54.47 54.56 61.15 61.70 61.70 60.53 61.13 61.14 60.14 60.66
53.59 53.91 51.29 43.74 44.92 46.07 45.76 46.09 45.89 46.70 46.70 46.57 46.37 46.91 45.91 46.01 47.52 47.98 47.57 46.92 45.03 45.18 45.73 47.90 47.74 45.38 41.89 46.13 45.43 44.18 49.30 51.28 51.90 54.06 54.59 52.75 56.73 60.76 59.08 59.32 58.76 58.72 58.71 57.93 58.75
MSLP
1017.44 1017.25 1017.06 1016.92 1016.75 1016.57 1016.49 1016.38 1016.24 1016.28 1016.21 1016.10 1015.90 1015.63 1015.47 1015.24 1014.90 1014.64 1013.24 1010.86 1010.94 1011.14 1011.31 1011.61 1011.84 1011.84 1011.94 1011.74 1011.72 1012.00 1012.26 1012.27 1012.40 1012.62 1013.23 1013.65 1013.32 1012.97 1012.92 1012.80 1013.10 1013.54 1014.10 1015.53 1016.68
1017.29 1017.11 1016.95 1016.79 1016.64 1016.43 1016.27 1016.16 1016.09 1016.00 1015.96 1015.90 1015.84 1015.63 1015.37 1015.09 1014.63 1013.24 1010.41 1010.46 1010.78 1010.96 1011.07 1011.08 1011.42 1011.63 1011.61 1011.52 1011.56 1011.69 1011.91 1012.13 1012.30 1012.72 1012.52 1013.61 1013.52 1013.08 1012.95 1013.14 1014.02 1014.13 1015.17 1016.35 1017.16
1017.10 1016.94 1016.75 1016.64 1016.46 1016.28 1016.15 1016.00 1015.90 1015.81 1015.76 1015.72 1015.64 1015.51 1015.30 1015.03 1013.87 1010.49 1009.59 1010.05 1010.58 1010.93 1010.95 1011.04 1011.21 1011.22 1011.21 1011.37 1011.33 1011.41 1011.60 1012.05 1012.40 1012.82 1012.96 1013.78 1013.78 1013.60 1013.44 1013.18 1013.42 1013.74 1015.23 1016.29 1016.90
1017.00 1016.80 1016.62 1016.40 1016.23 1016.22 1016.07 1015.88 1015.66 1015.57 1015.55 1015.48 1015.45 1015.29 1015.02 1014.85 1012.36 1009.69 1009.54 1009.99 1010.47 1010.71 1010.95 1011.03 1011.16 1010.98 1010.90 1010.88 1010.96 1011.12 1011.61 1011.96 1012.46 1013.17 1013.78 1013.82 1013.89 1013.49 1013.57 1013.12 1013.55 1014.10 1014.94 1016.00 1016.50
1016.96 1016.77 1016.56 1016.38 1016.18 1015.95 1015.83 1015.68 1015.54 1015.36 1015.34 1015.31 1015.20 1015.11 1014.80 1013.70 1010.88 1009.54 1009.52 1010.09 1010.54 1010.65 1010.58 1010.70 1010.80 1010.73 1010.44 1010.50 1010.78 1010.93 1011.42 1012.02 1012.02 1013.56 1013.75 1013.86 1014.21 1014.31 1013.96 1013.73 1014.27 1015.07 1015.64 1016.01 1016.47
1016.78 1016.57 1016.33 1016.12 1015.88 1015.70 1015.50 1015.62 1015.48 1015.28 1015.19 1015.15 1015.01 1014.90 1014.44 1012.29 1009.94 1009.65 1009.34 1010.17 1010.48 1010.41 1010.59 1010.71 1010.63 1010.50 1010.29 1010.22 1010.24 1010.47 1011.14 1011.79 1012.50 1012.59 1013.82 1013.93 1014.88 1014.65 1014.57 1014.44 1014.75 1015.37 1015.81 1016.08 1016.40
1016.73 1016.49 1016.23 1016.05 1015.89 1015.63 1015.53 1015.55 1015.50 1015.34 1015.16 1015.08 1014.94 1014.62 1013.55 1011.03 1010.04 1010.04 1010.00 1010.24 1010.75 1010.65 1010.53 1010.82 1010.67 1010.56 1010.23 1009.97 1010.23 1010.30 1010.96 1011.64 1012.44 1013.36 1013.32 1014.62 1015.31 1014.96 1014.54 1014.80 1015.08 1015.47 1015.89 1016.11 1016.30
1016.58 1016.38 1016.15 1015.88 1015.73 1015.49 1015.41 1015.27 1015.28 1015.28 1014.92 1014.82 1014.76 1014.49 1011.96 1010.37 1010.34 1010.18 1009.98 1010.45 1010.86 1011.00 1010.86 1010.84 1010.69 1010.48 1010.19 1010.05 1010.04 1010.00 1010.58 1011.04 1011.88 1012.74 1013.80 1013.90 1014.64 1014.90 1014.94 1014.94 1015.11 1015.44 1015.82 1016.03 1016.22
1016.51 1016.25 1016.04 1015.87 1015.75 1015.59 1015.40 1015.09 1014.90 1014.94 1014.82 1014.62 1014.60 1014.05 1010.98 1010.17 1010.10 1009.80 1009.90 1009.97 1010.68 1011.04 1011.04 1010.85 1010.78 1010.54 1010.10 1009.52 1009.37 1009.78 1009.67 1010.46 1011.63 1012.36 1012.92 1013.48 1014.30 1015.09 1015.03 1014.99 1015.09 1015.35 1015.45 1015.81 1016.20
1016.30 1016.15 1015.96 1015.76 1015.58 1015.36 1015.17 1014.83 1014.81 1014.58 1014.73 1014.46 1014.13 1013.69 1010.59 1009.70 1009.54 1009.77 1010.09 1009.88 1010.27 1010.90 1011.01 1010.83 1010.66 1010.37 1010.09 1009.33 1008.39 1008.71 1009.19 1009.88 1010.54 1012.12 1012.74 1013.30 1014.14 1014.65 1014.84 1014.98 1014.78 1015.04 1015.22 1015.61 1015.74
1016.12 1015.95 1015.70 1015.66 1015.53 1015.48 1015.07 1014.80 1014.86 1014.36 1013.90 1012.28 1011.87 1011.16 1009.99 1009.38 1009.42 1009.68 1009.84 1009.95 1010.17 1010.52 1010.56 1010.66 1010.03 1009.52 1009.54 1009.19 1008.86 1008.58 1008.74 1009.24 1010.65 1011.95 1012.47 1013.25 1013.77 1014.17 1014.52 1014.43 1014.56 1014.72 1014.86 1015.08 1015.11
1015.74 1015.58 1015.50 1015.35 1015.20 1015.23 1015.41 1013.97 1012.70 1012.45 1011.89 1011.12 1011.03 1010.66 1009.94 1009.59 1009.14 1009.51 1009.68 1009.52 1009.79 1009.83 1010.40 1010.60 1009.40 1009.64 1009.45 1009.42 1008.99 1008.59 1008.61 1009.78 1011.02 1011.55 1012.07 1013.14 1013.48 1013.73 1014.08 1014.18 1014.10 1014.26 1014.46 1014.52 1014.86
1015.48 1015.32 1015.24 1015.08 1015.03 1015.05 1014.32 1012.82 1012.19 1012.02 1011.60 1010.34 1010.00 1009.59 1009.18 1009.20 1008.65 1008.93 1009.10 1009.08 1009.38 1009.46 1009.52 1009.28 1009.14 1009.38 1009.24 1009.22 1008.86 1008.77 1008.72 1009.56 1009.93 1011.31 1011.76 1012.14 1012.81 1013.42 1013.90 1014.07 1014.27 1014.09 1014.05 1014.06 1014.46
1015.33 1015.02 1014.94 1014.96 1015.44 1014.02 1013.12 1012.06 1012.17 1012.11 1010.94 1009.88 1009.11 1008.65 1008.90 1008.66 1008.35 1008.36 1008.53 1008.50 1009.00 1009.02 1009.29 1008.99 1009.02 1008.83 1008.82 1008.68 1008.72 1008.50 1008.96 1009.45 1010.00 1010.30 1010.90 1011.74 1012.54 1012.87 1013.24 1013.60 1013.77 1013.73 1013.52 1013.70 1014.12
1015.06 1014.83 1014.70 1014.66 1014.60 1013.56 1012.34 1012.18 1012.16 1012.06 1010.36 1009.40 1008.30 1008.14 1008.21 1008.16 1007.96 1008.34 1008.19 1008.17 1008.24 1008.47 1008.88 1008.46 1008.46 1008.63 1008.49 1008.27 1008.62 1008.51 1008.88 1009.36 1009.90 1010.10 1010.41 1011.08 1011.46 1011.90 1012.52 1012.71 1012.57 1012.92 1013.12 1013.28 1013.50
1014.64 1014.39 1014.36 1014.56 1014.30 1012.54 1012.23 1012.07 1012.10 1011.29 1010.18 1009.12 1008.36 1008.19 1008.06 1007.72 1007.57 1007.91 1008.16 1007.97 1008.21 1008.36 1008.52 1008.32 1008.41 1008.21 1008.06 1008.35 1008.39 1008.78 1009.14 1009.88 1010.34 1010.34 1009.92 1009.96 1010.68 1010.93 1011.17 1010.44 1011.60 1012.06 1012.45 1012.68 1013.00
1014.24 1013.98 1014.14 1013.47 1012.65 1012.22 1012.12 1011.70 1011.36 1010.72 1010.79 1009.78 1009.01 1008.64 1008.34 1007.63 1007.42 1007.56 1007.77 1007.86 1007.82 1008.12 1007.96 1008.15 1008.16 1008.00 1007.98 1008.04 1008.51 1008.32 1008.35 1009.18 1009.84 1009.93 1009.09 1009.98 1010.10 1008.99 1010.09 1009.94 1010.18 1010.91 1011.50 1012.08 1012.59
1013.60 1013.26 1013.30 1012.80 1012.45 1012.24 1011.45 1011.16 1011.00 1011.20 1010.58 1010.12 1009.54 1009.00 1008.56 1008.11 1007.69 1007.70 1007.76 1007.90 1008.26 1007.98 1007.90 1007.77 1007.85 1007.66 1007.74 1007.49 1007.52 1007.90 1007.55 1007.26 1007.72 1008.36 1008.59 1009.86 1009.24 1008.96 1009.78 1009.68 1009.70 1010.48 1011.38 1011.97 1012.42
1013.01 1012.92 1012.77 1012.00 1012.02 1012.11 1011.19 1011.02 1011.48 1011.25 1010.93 1010.32 1009.62 1009.20 1008.92 1008.55 1008.12 1008.00 1007.98 1007.79 1007.86 1007.95 1007.77 1007.78 1007.56 1007.21 1007.09 1007.16 1007.38 1007.67 1007.54 1007.24 1007.45 1008.36 1008.25 1008.74 1008.90 1008.97 1009.32 1009.44 1009.66 1010.23 1011.13 1011.72 1012.28
1012.82 1012.13 1011.92 1011.82 1011.73 1011.28 1010.94 1011.56 1011.80 1011.60 1011.14 1010.73 1010.10 1010.00 1009.37 1009.02 1008.50 1008.29 1008.31 1008.31 1008.09 1008.10 1007.93 1007.98 1007.53 1006.98 1006.79 1007.10 1007.42 1006.92 1006.97 1007.37 1007.31 1007.22 1007.43 1008.37 1008.66 1008.46 1009.32 1009.70 1009.88 1010.26 1010.67 1011.44 1012.14
1012.41 1011.72 1011.64 1011.64 1011.50 1010.94 1011.48 1011.93 1011.84 1011.32 1011.32 1010.80 1010.49 1010.22 1010.16 1009.77 1009.30 1009.17 1008.94 1008.76 1008.52 1008.35 1008.24 1007.97 1007.88 1007.32 1007.02 1006.59 1006.24 1007.05 1006.83 1006.94 1006.56 1007.07 1006.66 1007.70 1008.32 1009.42 1009.79 1010.20 1010.40 1010.83 1011.34 1011.77 1012.33
1012.09 1011.49 1011.41 1011.30 1011.31 1012.40 1012.02 1012.25 1012.12 1011.32 1011.10 1010.80 1010.71 1010.63 1010.62 1010.63 1010.29 1009.82 1009.25 1009.00 1008.87 1008.52 1008.36 1008.43 1007.84 1007.26 1006.88 1007.01 1007.01 1006.48 1006.05 1006.27 1005.93 1006.96 1007.52 1008.05 1008.95 1009.90 1010.29 1010.75 1011.30 1011.85 1012.44 1012.89 1013.30
1012.46 1012.08 1011.48 1011.19 1011.62 1012.06 1012.33 1012.06 1011.99 1011.39 1011.35 1011.08 1010.97 1011.05 1011.24 1011.38 1011.50 1010.77 1009.96 1009.55 1009.18 1008.80 1008.84 1008.60 1008.42 1007.72 1007.29 1007.32 1007.30 1006.80 1006.90 1006.67 1006.35 1006.44 1007.02 1007.58 1009.06 1010.25 1011.00 1011.47 1011.98 1012.56 1013.30 1013.87 1014.48
1012.69 1012.34 1011.87 1012.03 1012.67 1012.24 1012.14 1012.16 1011.86 1011.80 1011.77 1011.81 1011.73 1011.39 1011.18 1011.21 1011.22 1011.09 1010.51 1009.88 1009.69 1009.45 1009.34 1009.13 1008.94 1008.44 1007.72 1007.49 1007.66 1007.41 1007.34 1007.17 1006.65 1006.31 1007.07 1007.79 1009.15 1010.34 1011.04 1011.76 1012.61 1013.31 1013.91 1014.51 1014.98
1013.08 1013.09 1013.06 1012.69 1012.62 1012.48 1012.44 1012.39 1012.11 1012.07 1012.06 1012.07 1011.89 1011.98 1011.86 1011.75 1011.86 1011.86 1011.40 1010.57 1010.06 1010.06 1009.88 1009.54 1009.53 1009.42 1009.08 1008.66 1008.30 1008.24 1007.86 1007.59 1007.29 1007.28 1007.20 1007.77 1008.74 1009.95 1011.02 1012.09 1013.02 1013.86 1014.54 1015.07 1015.67
1013.30 1013.05 1013.42 1013.26 1013.00 1012.49 1012.62 1012.60 1012.48 1012.60 1012.58 1012.38 1012.44 1012.50 1012.18 1012.30 1012.62 1012.37 1012.01 1011.44 1011.37 1010.62 1010.25 1010.23 1010.44 1010.21 1009.74 1009.42 1009.10 1008.63 1008.66 1008.48 1008.47 1008.54 1008.49 1008.68 1009.44 1010.42 1011.82 1012.83 1013.82 1014.44 1015.14 1015.75 1016.33
1013.94 1013.66 1012.95 1013.49 1013.05 1012.72 1012.79 1012.64 1012.63 1012.84 1013.05 1012.97 1012.93 1012.74 1012.61 1012.81 1012.80 1012.77 1012.58 1012.33 1012.24 1011.63 1011.01 1010.96 1010.89 1011.00 1010.47 1010.21 1009.66 1009.35 1009.96 1009.68 1009.62 1009.64 1009.68 1009.53 1010.00 1011.20 1012.29 1013.34 1014.43 1015.15 1015.82 1016.49 1017.10
Wind_Speed
10 9 8 8 8 8 8 8 8 8 10 10 11 10 10 10 10 1 7 8 7 7 8 11 6 7 4 5 2 1 0 2 5 12 7 3 1 2 4 13 4 4 14 17 18
11 10 10 10 9 9 9 8 9 8 8 9 10 11 10 10 3 10 12 10 12 13 11 14 11 10 4 5 4 2 1 1 4 5 13 8 3 7 6 10 10 18 21 20 18
11 11 11 11 10 9 9 9 8 8 8 9 9 10 10 8 5 5 4 17 12 14 8 8 12 6 4 4 4 3 2 3 0 11 15 11 5 2 9 5 14 26 26 21 19
11 11 11 11 11 11 10 10 8 8 8 8 9 10 11 2 1 2 2 13 13 11 14 9 9 7 4 6 6 4 4 2 7 11 13 8 5 8 4 2 16 23 25 20 20
11 12 11 11 11 10 10 9 9 8 7 7 7 8 3 3 8 3 5 13 12 10 15 10 14 5 5 5 7 4 6 4 7 15 10 6 6 4 9 14 19 20 21 20 17
12 11 10 10 10 10 9 9 9 8 6 6 5 4 2 5 3 8 7 14 11 10 10 10 10 4 3 4 5 5 9 9 14 14 11 11 3 5 5 17 19 19 18 17 16
12 12 11 11 10 9 9 8 8 6 5 4 3 3 2 9 4 4 10 8 7 4 9 4 2 4 3 5 0 8 9 7 11 15 8 14 5 3 9 17 18 17 16 15 15
13 12 11 10 10 9 9 8 8 7 4 2 3 2 6 2 3 7 9 9 7 3 2 5 1 2 3 2 4 6 6 5 10 13 13 9 11 5 8 15 18 17 15 14 15
14 12 11 11 10 11 12 12 6 3 3 6 3 3 3 2 4 8 4 10 10 1 3 4 4 1 3 3 6 3 4 7 11 8 13 1 8 7 10 14 18 17 16 14 12
13 12 11 10 10 10 13 4 6 6 4 4 3 4 4 2 3 6 2 14 6 7 1 4 4 5 2 5 7 7 6 7 9 10 11 12 6 10 10 16 18 17 16 14 14
13 12 11 8 8 8 5 3 4 4 5 6 2 4 4 3 5 4 7 7 6 7 6 4 10 12 10 7 1 3 7 10 9 4 10 5 4 10 13 16 19 17 16 16 17
14 12 10 9 5 4 2 3 2 3 8 6 7 7 7 3 3 7 11 4 7 14 8 6 15 10 6 4 2 6 12 8 7 6 4 8 4 9 13 14 15 17 17 18 14
12 14 12 7 5 2 3 5 2 2 4 2 3 3 1 8 5 11 17 8 10 12 13 11 1 10 9 7 7 3 4 9 7 8 6 10 5 7 11 13 8 12 16 16 16
14 14 11 8 3 2 4 1 1 3 2 8 2 3 5 2 4 7 13 8 5 12 11 8 4 14 10 11 8 7 5 9 14 8 6 5 2 2 11 17 14 13 13 17 18
15 14 10 3 3 3 2 5 3 3 2 11 3 3 3 3 8 7 7 5 8 7 6 6 12 11 11 9 9 2 8 11 8 5 5 5 4 5 12 14 21 18 18 16 19
15 10 8 2 2 5 4 2 1 3 5 5 5 5 2 4 5 8 11 2 2 5 4 4 3 8 7 5 11 10 15 11 4 3 4 7 5 8 13 17 19 21 17 19 19
15 11 4 3 1 2 3 3 2 4 3 6 5 6 5 1 7 13 12 9 5 9 11 7 6 4 3 7 6 10 15 5 4 5 2 1 8 4 14 11 22 22 22 19 18
19 3 7 4 2 6 2 1 5 2 3 2 3 4 2 3 4 6 10 9 3 3 6 10 10 10 7 10 7 14 11 6 6 6 5 4 7 2 2 9 14 18 17 14 17
12 2 2 3 3 4 1 4 1 1 4 6 3 3 3 1 1 4 6 12 10 7 4 9 8 3 8 7 12 7 9 2 3 2 6 4 3 4 3 8 14 18 17 20 17
1 0 3 2 3 1 4 2 1 3 4 2 5 2 2 3 3 2 3 3 5 5 4 3 5 4 8 7 3 7 11 9 4 7 7 5 4 2 1 3 13 16 18 20 18
1 2 3 1 3 4 4 2 3 3 4 2 3 3 3 3 4 3 1 4 1 2 7 5 2 5 6 9 13 7 6 1 2 3 6 6 4 2 2 5 9 11 9 14 17
1 2 3 3 2 2 2 1 3 3 3 2 1 3 3 5 4 3 2 2 6 4 5 2 2 4 2 2 3 2 9 9 9 8 1 3 2 2 2 8 10 10 8 8 9
3 1 2 3 2 2 0 1 3 7 6 7 4 4 4 2 5 4 3 3 8 2 3 7 2 3 6 6 4 3 3 2 4 3 6 6 3 3 5 8 10 11 10 11 9
2 2 2 4 2 1 2 2 1 4 3 3 5 1 1 6 6 4 4 3 7 4 8 2 4 3 3 3 2 4 4 4 5 7 7 3 7 10 9 9 10 9 10 11 9
3 2 2 2 4 4 2 1 4 6 5 8 3 9 3 3 4 1 4 5 2 7 2 2 5 4 6 8 10 9 5 3 1 2 7 8 12 14 11 11 9 11 9 12 10
1 2 2 3 1 3 2 3 3 2 6 5 4 6 7 5 4 3 5 4 1 7 1 5 3 4 4 8 2 12 12 8 7 3 4 10 5 12 11 10 10 8 11 10 10
1 1 1 1 2 2 1 2 2 1 1 2 2 1 4 5 4 4 3 2 3 1 4 4 2 2 2 8 4 4 10 6 2 2 1 6 2 15 14 13 10 10 11 12 11
Wind_Direction
338 334 328 324 321 319 319 320 325 328 328 328 327 330 330 324 323 183 242 227 183 178 154 137 131 133 150 172 184 107 241 336 4 150 120 135 313 55 112 128 69 143 140 131 146
338 333 330 327 322 317 313 313 316 320 323 326 325 325 324 329 298 251 243 231 209 163 149 160 149 147 155 172 187 226 227 285 353 150 137 142 267 123 132 117 97 106 113 134 152
333 331 327 323 319 314 311 309 312 313 319 323 323 323 319 324 272 247 240 212 193 173 165 158 143 150 158 172 175 177 14 155 79 149 143 158 156 343 129 151 169 142 139 149 157
333 330 327 324 320 314 309 304 304 308 314 319 320 322 314 257 219 56 43 178 169 153 154 150 158 164 158 177 183 166 123 71 132 146 151 160 111 119 7 160 148 140 145 153 163
336 335 330 326 322 316 306 299 298 299 306 313 317 322 314 229 251 321 320 165 154 151 163 163 166 157 189 170 168 201 171 98 106 148 125 96 99 49 78 123 137 139 149 158 163
340 334 332 325 319 313 307 306 301 298 301 302 305 302 251 249 17 343 153 149 162 151 152 158 179 199 127 172 208 155 156 127 140 169 144 131 133 327 109 135 141 150 157 160 165
342 340 336 331 327 322 317 312 302 296 296 289 269 242 186 255 12 80 126 133 159 144 154 155 201 228 164 163 242 137 135 135 145 160 135 123 155 222 141 145 152 159 164 169 174
346 341 335 331 329 326 321 313 295 285 258 227 191 237 247 235 335 158 136 109 122 70 62 158 48 309 267 337 134 143 154 159 159 147 148 188 175 206 137 159 165 166 173 178 184
347 342 337 336 334 330 321 313 282 247 195 157 160 267 269 342 223 168 158 136 148 102 20 126 189 238 253 223 158 189 161 173 163 172 153 289 116 151 172 187 174 176 179 186 185
348 344 339 335 330 333 324 279 140 126 180 176 256 251 238 55 145 144 137 138 129 136 152 144 152 188 210 215 191 164 177 177 154 166 161 119 104 149 172 183 177 182 185 189 194
344 344 343 337 327 331 337 140 213 179 214 247 297 296 302 360 142 150 158 134 112 133 165 187 189 195 189 225 306 141 169 161 109 152 144 134 133 165 171 179 179 185 188 195 203
342 337 335 332 325 313 244 225 258 22 305 239 254 264 270 288 121 137 174 150 159 157 147 169 212 176 176 208 223 133 153 104 89 133 134 166 104 154 169 174 179 184 191 199 194
337 337 333 327 319 201 229 234 33 181 263 297 195 224 320 179 178 170 178 153 167 164 173 190 174 174 176 177 178 179 176 161 140 129 109 148 97 135 181 178 185 188 201 204 194
339 335 333 330 229 158 244 272 149 229 312 28 84 139 139 202 146 156 187 147 167 190 172 200 122 177 174 182 194 196 176 153 143 169 152 220 127 268 159 191 198 201 197 207 201
336 332 328 295 330 220 51 1 114 219 71 340 34 107 127 220 134 179 190 190 178 176 203 142 147 170 183 182 182 183 173 153 152 101 157 167 128 179 180 201 197 198 204 206 206
334 326 327 161 204 254 330 346 231 239 58 348 345 1 214 186 157 128 186 152 94 160 200 127 131 175 196 176 186 124 119 102 92 356 248 197 212 182 189 215 204 195 193 204 204
332 308 237 190 57 1 263 164 273 40 336 357 345 341 322 156 130 163 178 187 193 184 191 186 169 164 173 152 176 188 164 134 167 197 223 205 203 250 197 216 202 195 193 194 201
330 307 202 242 303 340 217 150 62 316 298 338 322 317 28 335 109 152 165 189 166 109 176 204 205 202 166 214 181 185 197 200 179 199 164 144 219 194 301 238 212 195 205 194 199
317 131 186 314 194 184 159 54 57 265 320 321 302 42 16 301 111 149 205 204 208 198 224 192 228 181 194 165 181 183 222 260 106 77 210 169 236 226 11 170 184 183 187 200 203
337 113 31 32 168 227 73 97 307 248 303 273 17 3 347 338 147 93 181 164 177 216 223 155 231 193 157 157 145 207 172 190 218 182 212 192 256 174 89 132 189 182 190 197 197
199 114 22 291 258 51 70 36 286 260 246 296 11 325 358 311 62 59 342 80 344 196 203 164 245 129 159 203 181 170 192 182 177 309 221 181 208 119 222 171 186 187 174 186 185
71 101 27 284 46 34 60 312 341 322 26 316 237 42 66 341 58 331 76 5 335 201 192 180 180 245 101 5 273 224 196 194 214 180 93 321 143 316 146 162 166 157 139 136 149
68 57 59 287 76 62 98 3 325 11 9 8 18 8 93 82 162 241 360 29 2 151 181 183 155 203 148 151 145 120 104 179 126 146 182 232 153 158 145 161 159 162 143 126 109
119 116 55 66 25 125 97 35 42 26 52 3 359 270 30 35 30 76 329 338 360 54 40 25 88 323 251 80 74 126 71 153 278 211 158 218 157 192 184 172 163 155 142 146 133
15 91 355 88 67 94 69 29 38 10 4 22 57 24 350 75 76 14 318 320 344 8 42 342 72 54 67 82 85 84 79 140 185 311 234 177 194 186 180 172 156 155 139 135 133
87 155 87 81 313 87 22 52 61 35 3 10 31 14 44 77 37 9 329 25 30 321 110 14 88 13 73 19 7 80 57 88 70 136 60 147 164 167 152 136 137 130 129 120 118
74 71 281 31 111 145 112 143 104 124 103 41 329 335 44 16 324 318 296 55 35 33 7 23 123 60 27 348 305 178 17 33 92 75 121 184 354 162 159 155 139 130 128 126 126